Location: Amsterdam
(30.7274°N, 84.4357°W)
Time: 18:55:09
(UTC+00:00)

Vanguard 1 Rocket - Pass Details

Date: 20 February 2026
Orbit: 653 x 4214 km, 34.3° (Epoch: 11 March)

Event Time Altitude Azimuth Distance (km) Brightness Sun altitude
Rises 23:37:02 0° 289° (WNW) 5,952 12.8 -2.4°
Reaches altitude 10° 23:40:16 10° 287° (WNW) 5,312 12.5 -3.1°
Maximum altitude 23:57:55 68° 209° (SSW) 3,929 10.8 -6.8°
Drops below altitude 10° 00:23:54 10° 132° (SE) 7,331 11.6 -12.3°
Sets 00:29:25 0° 130° (SE) 8,194 11.8 -13.5°
